Change the Weather History Date:

Friday, March 30, 2012

  Actual Average Record
Temperature  
Mean Temperature 72 °F 66 °F  
Max Temperature 89 °F 84 °F 98 °F (1969)
Min Temperature 55 °F 49 °F 39 °F (1967)
Degree Days  
Heating Degree Days 0 2  
Month to date heating degree days 108 93  
Since 1 July heating degree days 1226 1158  
Cooling Degree Days 7 3  
Month to date cooling degree days 49 59  
Year to date cooling degree days 52 71  
Growing Degree Days 23 (Base 50)    
Moisture  
Dew Point 46 °F    
Average Humidity 45    
Maximum Humidity 72    
Minimum Humidity 17    
Precipitation  
Precipitation 0.00 in 0.01 in 0.07 in (1978)
Month to date precipitation 0.03 0.38  
Year to date precipitation 0.30 1.71  
Since 1 July precipitation 1.29 3.09  
Snow  
Snow 0.00 in - - ()
Month to date snowfall 0.0  
Year to date snowfall 0.0  
Since 1 July snowfall 0.0  
Snow Depth 0.00 in    
Sea Level Pressure  
Sea Level Pressure 29.85 in    
Wind  
Wind Speed 8 mph (North)    
Max Wind Speed 18 mph    
Max Gust Speed 25 mph    
Visibility 10 miles    
Events      
T = Trace of Precipitation, MM = Missing Value Source: NWS Daily Summary

Daily Weather History Graph

Daily Weather History Graph

Search for Another Location

Airport or City:

Trip Planner

Search our weather history database for the weather conditions in past years. The results will help you decide how hot, cold, wet, or windy it might be!

Date:

Astronomy

Mar. 30, 2012 Rise Set
Actual Time 6:34 AM PDT 7:04 PM PDT
Civil Twilight 6:09 AM PDT 7:29 PM PDT
Nautical Twilight 5:39 AM PDT 7:58 PM PDT
Astronomical Twilight 5:09 AM PDT 8:28 PM PDT
Moon 11:56 AM PDT (3/30) 1:30 AM PDT (3/30)
Length of Visible Light 13h 20m
Length of Day
12h 30m
Waxing Crescent, 50% of the Moon is Illuminated
Mar 30
Waxing Crescent
Mar 30
First Quarter
Apr 6
Full
Apr 13
Last Quarter
Apr 21
New

Hourly Weather History & Observations

Time (PDT) Temp. Dew Point Humidity Pressure Visibility Wind Dir Wind Speed Gust Speed Precip Events Conditions
12:52 AM 70.0 °F 50.0 °F 49% 29.89 in 10.0 mi NW 16.1 mph 23.0 mph N/A   Clear
1:52 AM 70.0 °F 48.9 °F 47% 29.88 in 10.0 mi NW 15.0 mph 20.7 mph N/A   Clear
2:52 AM 68.0 °F 48.9 °F 50% 29.85 in 10.0 mi NW 12.7 mph 20.7 mph N/A   Clear
3:52 AM 66.0 °F 48.9 °F 54% 29.84 in 10.0 mi North 8.1 mph - N/A   Clear
5:52 AM 57.9 °F 48.0 °F 70% 29.85 in 10.0 mi Calm Calm - N/A   Clear
6:52 AM 57.9 °F 48.9 °F 72% 29.88 in 10.0 mi North 4.6 mph - N/A   Clear
7:52 AM 60.1 °F 50.0 °F 69% 29.90 in 10.0 mi Calm Calm - N/A   Clear
8:52 AM 71.1 °F 51.1 °F 49% 29.91 in 10.0 mi Calm Calm - N/A   Clear
9:52 AM 79.0 °F 46.9 °F 32% 29.91 in 10.0 mi NW 6.9 mph - N/A   Clear
11:52 AM 86.0 °F 43.0 °F 22% 29.91 in 10.0 mi Variable 5.8 mph - N/A   Clear
12:52 PM 87.1 °F 41.0 °F 20% 29.86 in 10.0 mi SE 11.5 mph - N/A   Clear
1:52 PM 89.1 °F 41.0 °F 19% 29.84 in 10.0 mi SSE 10.4 mph - N/A   Clear
2:52 PM 88.0 °F 41.0 °F 19% 29.84 in 10.0 mi SE 11.5 mph - N/A   Clear
3:52 PM 89.1 °F 39.0 °F 17% 29.83 in 10.0 mi South 8.1 mph - N/A   Clear
4:52 PM 88.0 °F 39.0 °F 18% 29.80 in 10.0 mi SE 8.1 mph - N/A   Clear
5:52 PM 84.9 °F 41.0 °F 21% 29.79 in 10.0 mi South 8.1 mph - N/A   Clear
6:52 PM 80.1 °F 44.1 °F 28% 29.79 in 10.0 mi SSE 3.5 mph - N/A   Clear
7:52 PM 73.0 °F 46.0 °F 38% 29.80 in 10.0 mi Calm Calm - N/A   Clear
8:52 PM 71.1 °F 46.9 °F 42% 29.82 in 10.0 mi North 4.6 mph - N/A   Clear
9:52 PM 70.0 °F 46.9 °F 44% 29.83 in 10.0 mi NNW 4.6 mph - N/A   Clear
10:52 PM 63.0 °F 45.0 °F 52% 29.83 in 10.0 mi Calm Calm - N/A   Clear
11:52 PM 69.1 °F 48.9 °F 49% 29.86 in 10.0 mi NNW 6.9 mph - N/A   Clear